TimeEST,TemperatureF,Dew PointF,Humidity,Sea Level PressureIn,VisibilityMPH,Wind Direction,Wind SpeedMPH,Gust SpeedMPH,PrecipitationIn,Events,Conditions,WindDirDegrees,DateUTC
12:31 AM,30.9,26.1,82,30.12,10.0,Calm,Calm,-,N/A,,Overcast,0,2014-02-09 05:31:00
12:53 AM,30.9,26.1,82,30.15,10.0,Calm,Calm,-,N/A,,Overcast,0,2014-02-09 05:53:00
1:53 AM,32.0,27.0,82,30.13,10.0,Calm,Calm,-,N/A,,Overcast,0,2014-02-09 06:53:00
2:36 AM,32.0,28.0,85,30.09,10.0,SSW,3.5,-,N/A,,Overcast,210,2014-02-09 07:36:00
2:41 AM,32.0,28.0,85,30.09,10.0,SSW,3.5,-,N/A,,Overcast,200,2014-02-09 07:41:00
2:53 AM,32.0,28.0,85,30.13,8.0,WSW,3.5,-,N/A,,Overcast,240,2014-02-09 07:53:00
3:07 AM,32.0,28.0,85,30.10,6.0,Calm,Calm,-,0.00,Snow,Light Snow,0,2014-02-09 08:07:00
3:24 AM,32.0,28.0,85,30.10,2.5,SW,3.5,-,0.00,Snow,Light Snow,230,2014-02-09 08:24:00
3:31 AM,32.0,28.9,88,30.10,3.0,SW,4.6,-,0.00,Snow,Light Snow,230,2014-02-09 08:31:00
3:42 AM,32.0,28.9,88,30.10,2.5,Calm,Calm,-,0.01,Snow,Light Snow,0,2014-02-09 08:42:00
3:53 AM,30.9,28.9,92,30.13,2.5,Calm,Calm,-,0.01,Snow,Light Snow,0,2014-02-09 08:53:00
4:03 AM,30.9,28.9,92,30.10,2.5,Calm,Calm,-,0.00,Snow,Light Snow,0,2014-02-09 09:03:00
4:14 AM,30.9,28.9,92,30.09,1.8,Calm,Calm,-,0.00,,Overcast,0,2014-02-09 09:14:00
4:22 AM,30.9,28.9,92,30.09,1.2,Variable,3.5,-,0.00,,Overcast,0,2014-02-09 09:22:00
4:35 AM,30.9,28.9,92,30.09,1.0,Calm,Calm,-,0.00,,Overcast,0,2014-02-09 09:35:00
4:45 AM,30.9,28.9,92,30.08,2.0,SSW,3.5,-,0.00,,Overcast,210,2014-02-09 09:45:00
4:53 AM,30.9,30.0,96,30.11,2.5,Calm,Calm,-,0.00,,Overcast,0,2014-02-09 09:53:00
5:11 AM,30.9,28.9,92,30.06,4.0,Calm,Calm,-,N/A,,Mostly Cloudy,0,2014-02-09 10:11:00
5:35 AM,32.0,30.0,92,30.06,5.0,South,3.5,-,N/A,,Overcast,190,2014-02-09 10:35:00
5:53 AM,30.9,30.0,96,30.09,3.0,Calm,Calm,-,N/A,,Overcast,0,2014-02-09 10:53:00
6:07 AM,32.0,30.0,92,30.07,4.0,Calm,Calm,-,N/A,,Overcast,0,2014-02-09 11:07:00
6:22 AM,32.0,30.0,92,30.07,5.0,Calm,Calm,-,N/A,,Overcast,0,2014-02-09 11:22:00
6:35 AM,32.0,30.0,92,30.08,5.0,SW,3.5,-,N/A,,Overcast,230,2014-02-09 11:35:00
6:53 AM,32.0,30.0,92,30.11,5.0,SW,3.5,-,N/A,,Overcast,220,2014-02-09 11:53:00
7:42 AM,32.0,30.0,92,30.06,1.8,South,3.5,-,0.00,Snow,Light Snow,190,2014-02-09 12:42:00
7:53 AM,32.0,30.9,96,30.09,1.8,South,3.5,-,0.00,Snow,Light Snow,190,2014-02-09 12:53:00
8:03 AM,32.0,30.9,96,30.05,1.5,Calm,Calm,-,0.00,Snow,Light Snow,0,2014-02-09 13:03:00
8:11 AM,32.0,30.0,92,30.04,2.0,Variable,3.5,-,0.00,,Overcast,0,2014-02-09 13:11:00
8:15 AM,32.0,30.9,96,30.04,1.2,Calm,Calm,-,0.00,,Overcast,0,2014-02-09 13:15:00
8:27 AM,32.0,30.9,96,30.04,2.0,South,3.5,-,0.00,,Overcast,190,2014-02-09 13:27:00
8:44 AM,33.1,30.9,92,30.04,3.0,SSW,4.6,-,0.00,,Overcast,210,2014-02-09 13:44:00
8:53 AM,33.1,30.9,92,30.07,4.0,Variable,3.5,-,0.00,,Overcast,0,2014-02-09 13:53:00
9:30 AM,33.1,30.9,92,30.06,3.0,SW,4.6,-,0.00,,Overcast,230,2014-02-09 14:30:00
9:44 AM,33.1,30.9,92,30.06,2.0,Variable,3.5,-,0.00,Snow,Light Snow,0,2014-02-09 14:44:00
9:53 AM,34.0,32.0,92,30.09,2.5,Variable,4.6,-,0.00,Rain,Light Rain,0,2014-02-09 14:53:00
10:01 AM,34.0,32.0,92,30.06,3.0,SW,4.6,-,0.00,,Overcast,230,2014-02-09 15:01:00
10:09 AM,34.0,32.0,92,30.06,2.5,SW,5.8,-,0.01,Rain,Light Rain,230,2014-02-09 15:09:00
10:40 AM,34.0,33.1,96,30.05,1.5,Variable,4.6,-,0.02,Snow,Light Snow,0,2014-02-09 15:40:00
10:46 AM,34.0,32.0,92,30.05,2.0,Variable,6.9,-,0.02,Snow,Light Snow,0,2014-02-09 15:46:00
10:53 AM,34.0,32.0,92,30.08,2.5,Variable,4.6,-,0.02,,Overcast,0,2014-02-09 15:53:00
11:09 AM,35.1,33.1,92,30.05,3.0,Variable,5.8,-,0.00,,Overcast,0,2014-02-09 16:09:00
11:53 AM,35.1,34.0,96,30.08,10.0,Variable,4.6,-,0.00,,Overcast,0,2014-02-09 16:53:00
12:02 PM,35.1,34.0,96,30.05,10.0,Variable,5.8,-,N/A,,Overcast,0,2014-02-09 17:02:00
12:12 PM,35.1,34.0,96,30.05,9.0,WSW,6.9,-,N/A,,Overcast,240,2014-02-09 17:12:00
12:31 PM,34.0,33.1,96,30.05,1.8,NW,4.6,-,0.00,Rain,Light Rain,310,2014-02-09 17:31:00
12:33 PM,34.0,33.1,96,30.05,1.2,NW,10.4,-,0.00,Rain,Light Rain,310,2014-02-09 17:33:00
12:53 PM,33.1,30.9,92,30.08,2.0,Variable,5.8,17.3,0.01,Rain,Light Rain,0,2014-02-09 17:53:00
1:30 PM,32.0,30.0,92,30.04,3.0,West,8.1,18.4,0.01,Snow,Light Snow,270,2014-02-09 18:30:00
1:34 PM,32.0,30.0,92,30.04,2.0,West,10.4,-,0.01,Snow,Light Snow,270,2014-02-09 18:34:00
1:51 PM,32.0,30.2,93,30.04,6.0,West,9.2,-,0.01,,Overcast,270,2014-02-09 18:51:00
1:53 PM,32.0,30.0,92,30.07,6.0,West,5.8,-,0.01,,Overcast,270,2014-02-09 18:53:00
2:01 PM,32.0,30.0,92,30.04,6.0,West,5.8,16.1,0.00,Snow,Light Snow,280,2014-02-09 19:01:00
2:53 PM,32.0,28.9,88,30.07,10.0,West,9.2,-,0.00,,Overcast,280,2014-02-09 19:53:00
3:53 PM,30.9,28.9,92,30.09,8.0,West,4.6,-,N/A,,Overcast,280,2014-02-09 20:53:00
4:53 PM,30.9,27.0,85,30.13,8.0,Variable,5.8,16.1,N/A,,Overcast,0,2014-02-09 21:53:00
5:53 PM,30.0,26.1,85,30.16,9.0,Variable,6.9,-,N/A,,Overcast,0,2014-02-09 22:53:00
6:34 PM,30.0,26.1,85,30.16,9.0,WNW,8.1,-,N/A,,Overcast,300,2014-02-09 23:34:00
6:53 PM,30.0,26.1,85,30.20,9.0,Variable,4.6,-,N/A,,Overcast,0,2014-02-09 23:53:00
7:29 PM,28.9,25.0,85,30.17,10.0,Variable,5.8,-,N/A,,Overcast,0,2014-02-10 00:29:00
7:53 PM,28.9,24.1,82,30.20,10.0,WNW,5.8,-,N/A,,Overcast,300,2014-02-10 00:53:00
8:16 PM,28.9,23.0,78,30.16,10.0,Variable,3.5,-,N/A,,Overcast,0,2014-02-10 01:16:00
8:53 PM,28.9,23.0,78,30.19,10.0,West,3.5,-,N/A,,Overcast,270,2014-02-10 01:53:00
9:51 PM,28.4,23.0,80,30.17,2.5,West,3.5,-,0.00,Snow,Light Snow,280,2014-02-10 02:51:00
9:53 PM,28.0,23.0,81,30.20,2.5,West,3.5,-,0.00,Snow,Light Snow,280,2014-02-10 02:53:00
10:02 PM,28.0,23.0,81,30.16,4.0,Variable,4.6,-,0.00,Snow,Light Snow,0,2014-02-10 03:02:00
10:32 PM,28.0,23.0,81,30.17,4.0,NW,4.6,-,0.00,Snow,Light Snow,320,2014-02-10 03:32:00
10:51 PM,28.4,23.0,80,30.17,1.8,Calm,Calm,-,0.00,Snow,Light Snow,0,2014-02-10 03:51:00
10:53 PM,28.0,24.1,85,30.20,1.5,Calm,Calm,-,0.00,Snow,Light Snow,0,2014-02-10 03:53:00
11:18 PM,27.0,24.1,89,30.17,1.2,Variable,3.5,-,0.01,Snow,Light Snow,0,2014-02-10 04:18:00
11:32 PM,27.0,24.1,89,30.17,0.8,Calm,Calm,-,0.01,Snow,Light Snow,0,2014-02-10 04:32:00
11:53 PM,27.0,24.1,89,30.21,0.8,Variable,3.5,-,0.03,Snow,Light Snow,0,2014-02-10 04:53:00